RH
68 62 68 75 74 66 63 58 44 39 47 53 58 64 66 65 64 63 63 72 85 89 89 89 82 75 76 76 74 71 71 74 77 82 86 87 87 83 84 85 81 85 95 94 86 82 87 89 88 85 78 73 73 75 72 67 72 79 78 77 78 76 78 81 83 83 82 85 88 88 90 93 94 93 94 93 91 91 89 89 90 92 93 90 92
65 64 73 75 70 67 63 56 49 49 54 60 65 67 64 62 62 60 61 67 75 84 86 81 76 73 68 64 65 67 69 72 73 77 83 87 92 92 95 96 90 91 94 92 89 85 86 88 86 82 73 68 71 72 70 69 74 80 78 77 80 79 76 74 75 79 83 84 84 89 95 97 97 97 97 96 94 91 88 89 92 93 93 91 91
65 67 73 73 70 70 68 64 68 74 73 77 83 80 72 66 64 63 64 67 72 82 84 76 74 74 69 62 60 62 66 72 76 82 86 84 87 93 95 93 90 93 95 92 91 90 85 81 79 78 72 69 70 71 72 75 77 80 80 75 74 77 77 77 76 77 82 82 81 90 99 99 99 99 97 95 92 89 89 92 93 93 92 92 91
58 62 69 74 76 77 77 74 76 78 75 81 93 93 87 79 74 71 69 70 75 83 84 79 76 75 71 66 65 69 71 76 81 86 92 91 90 95 94 90 92 95 98 95 91 90 81 71 73 75 72 71 71 70 70 72 75 78 79 75 71 71 71 74 80 82 82 80 82 90 99 101 100 100 97 93 92 92 91 92 93 93 91 91 94
54 66 76 81 82 79 74 65 60 62 61 64 75 85 89 85 82 82 82 81 82 87 88 84 79 75 70 67 68 74 79 83 86 87 91 94 94 98 97 92 96 97 96 96 92 86 77 71 78 78 73 74 75 74 73 72 72 71 70 70 70 70 69 72 79 85 85 82 81 83 91 97 96 98 98 93 95 94 90 89 90 92 92 93 95
77 81 84 84 82 77 69 61 59 60 56 50 54 67 76 76 75 80 86 90 93 96 95 89 84 80 75 73 69 71 80 86 90 92 92 94 94 96 96 90 94 95 94 98 92 83 80 82 84 81 77 79 79 77 76 75 72 67 67 68 69 70 71 74 75 82 89 87 85 83 83 84 84 89 93 95 98 94 89 89 88 91 95 95 93
95 90 89 88 84 78 71 69 69 66 58 49 49 56 64 65 63 68 77 86 94 97 98 98 93 89 82 79 77 74 79 83 85 89 92 96 97 94 93 91 92 92 95 100 90 81 86 87 83 84 85 84 81 77 73 71 69 67 71 73 72 70 72 72 69 75 83 83 84 87 84 80 80 82 83 87 92 90 89 90 89 93 96 92 90
98 97 97 93 85 80 76 75 76 71 63 57 56 57 60 63 62 69 75 78 84 85 91 98 91 89 88 86 86 80 76 78 81 87 89 92 96 93 91 92 91 90 96 101 93 86 90 88 84 87 87 83 78 75 70 69 71 73 77 79 78 76 76 73 70 72 74 75 79 85 87 84 82 83 79 76 77 82 92 95 92 96 95 91 91
99 100 98 93 87 85 83 82 82 76 69 65 66 67 68 69 70 80 84 83 85 76 74 79 75 80 92 92 91 84 77 80 86 91 91 91 93 94 94 94 93 93 95 99 96 90 91 92 90 87 84 80 74 72 74 75 77 78 79 79 79 81 81 79 78 75 72 74 78 80 86 87 85 87 85 79 73 77 90 94 93 97 97 93 91
100 101 98 97 92 89 88 87 86 82 76 71 70 70 69 68 71 82 88 88 89 75 59 58 61 71 84 87 90 89 84 83 88 93 94 94 93 93 94 92 93 96 95 93 88 85 87 91 92 87 81 76 71 73 80 81 79 79 79 79 79 81 82 81 83 82 78 79 79 80 84 85 84 84 83 81 78 77 81 84 90 97 97 96 93
99 100 98 97 92 89 89 86 86 84 81 76 72 70 70 69 70 75 83 86 86 79 62 51 53 62 72 80 86 90 89 86 90 94 93 94 93 93 94 89 90 95 93 87 80 78 85 89 89 84 77 74 75 79 83 80 77 78 81 83 83 83 83 84 85 85 86 86 83 82 84 82 79 76 73 74 76 77 76 77 89 98 97 98 97
95 95 94 93 89 86 86 82 83 83 82 81 77 75 74 75 74 71 81 93 91 83 68 55 54 56 62 75 81 85 90 92 94 93 88 88 88 89 91 88 89 94 92 85 81 81 83 85 84 79 76 78 82 83 82 79 76 78 81 83 84 84 85 87 86 85 88 88 83 81 83 82 79 77 74 73 75 76 75 73 85 98 98 99 100
92 90 88 87 85 82 81 78 77 76 76 80 81 80 77 78 82 83 89 97 89 73 60 58 61 53 51 67 77 82 90 94 95 90 84 83 83 83 84 84 86 88 85 83 84 83 78 78 80 78 80 85 86 82 78 76 76 77 79 80 83 82 83 87 87 87 87 83 81 81 81 81 82 81 79 79 79 79 79 77 82 95 98 98 100
87 85 82 80 78 74 73 72 70 67 65 68 73 79 83 84 89 92 91 89 78 62 54 56 56 47 44 58 71 81 89 92 92 89 84 82 81 79 79 78 78 80 82 83 83 79 75 78 81 81 83 85 83 80 76 75 76 78 78 81 85 84 83 85 86 89 88 82 83 83 83 85 84 82 81 83 82 80 81 80 82 94 100 99 97
86 84 81 76 73 70 68 68 67 64 61 61 63 69 81 88 89 88 84 80 71 59 53 52 47 41 43 54 65 77 86 89 90 90 86 83 81 80 78 75 76 78 81 82 81 80 80 83 83 83 85 83 81 80 78 76 76 81 83 84 88 88 85 85 86 87 86 83 86 87 88 89 85 80 79 82 83 81 82 83 80 86 95 100 97
91 86 83 80 78 75 72 70 68 68 65 64 64 63 72 86 91 88 80 75 70 62 56 53 48 45 46 52 61 70 77 84 89 90 87 84 84 84 81 76 76 77 77 80 84 86 86 84 82 84 85 83 82 81 80 78 78 82 85 83 85 86 81 81 84 83 81 82 86 86 86 89 87 81 79 80 83 84 86 88 83 78 80 87 90
96 93 91 89 84 79 78 75 71 71 69 70 73 72 77 87 92 93 87 80 76 71 65 58 52 52 52 55 64 68 70 77 86 89 87 84 84 85 84 77 74 74 78 83 86 87 87 84 83 87 88 85 85 83 80 78 79 81 78 75 76 76 72 74 79 79 78 80 82 82 83 86 86 83 81 82 85 86 87 88 87 81 75 72 73
99 99 97 91 86 84 84 82 79 75 75 79 81 78 79 83 86 94 97 92 86 81 75 63 54 54 54 59 66 66 63 73 85 90 88 85 81 82 82 75 70 74 79 82 84 86 87 85 85 87 87 83 81 80 76 75 75 72 67 66 69 71 69 69 74 76 76 77 77 79 81 83 84 84 85 85 84 85 86 86 86 86 82 75 68
99 99 98 95 94 95 94 93 92 85 82 85 83 75 73 76 80 90 98 99 96 92 84 71 62 61 61 63 66 63 62 72 85 89 89 86 80 78 80 76 74 80 82 81 83 86 85 83 86 87 83 78 76 75 74 72 70 63 59 59 61 67 70 68 70 71 71 72 72 74 77 79 83 86 86 85 82 81 83 85 86 87 85 81 74
100 99 100 99 99 100 99 99 99 93 87 85 81 76 76 78 81 87 94 99 100 98 93 85 80 80 79 76 70 66 68 74 80 85 87 85 77 74 77 77 79 87 91 88 84 81 79 80 83 84 79 73 72 74 74 74 70 62 59 57 54 63 70 67 67 68 68 69 70 72 75 78 83 86 84 82 80 79 81 84 88 89 87 83 79
100 99 100 100 99 100 100 99 100 96 89 80 72 72 77 80 85 89 93 98 100 99 97 95 94 93 92 89 80 74 77 79 80 83 85 82 76 73 73 72 76 85 89 90 87 79 77 80 82 85 84 77 76 78 79 79 74 64 62 62 60 66 71 68 67 68 68 69 70 72 75 78 82 83 83 82 80 80 84 87 89 89 87 84 81
100 99 100 100 99 100 100 98 97 91 83 75 69 72 79 82 88 93 94 96 100 100 99 100 99 96 96 98 93 87 86 85 84 84 83 81 76 72 70 70 74 74 70 80 90 84 83 86 87 89 90 87 87 85 82 81 73 62 63 69 71 72 72 69 67 69 70 71 72 74 75 78 81 82 84 84 82 80 81 85 88 86 83 82 80
100 99 99 100 99 100 99 98 97 86 79 78 77 80 87 88 89 94 96 95 97 99 98 98 99 98 99 100 97 93 89 86 84 81 80 79 75 71 72 72 72 64 57 74 92 88 86 89 88 89 91 89 90 87 80 76 67 62 67 72 72 68 66 66 66 68 72 74 76 77 77 80 83 85 85 84 83 80 75 78 84 82 78 77 76
100 100 100 100 98 97 96 97 97 89 83 87 88 85 90 92 91 94 98 96 96 99 99 98 99 99 99 98 96 95 92 88 86 81 77 77 75 74 75 73 68 60 57 75 91 87 87 90 86 87 86 80 79 79 75 71 65 63 66 66 64 63 65 68 68 66 67 71 78 81 82 85 86 87 86 83 80 78 75 78 80 77 72 70 71
98 98 98 99 97 95 95 96 96 92 89 93 96 94 94 96 96 97 99 98 98 100 98 97 97 97 97 96 91 88 89 89 91 92 88 87 86 82 77 70 65 63 65 79 89 89 90 84 72 69 68 66 72 76 74 72 68 65 64 64 64 67 69 69 66 62 61 69 80 86 86 87 88 86 85 81 77 75 73 72 72 70 67 65 66
94 93 95 98 97 95 97 97 96 94 92 93 97 100 99 99 100 99 99 99 99 99 97 93 92 91 93 92 83 77 79 80 83 91 94 94 94 89 82 76 71 69 74 83 88 87 80 66 58 64 68 71 78 80 75 74 72 66 64 64 64 66 68 68 65 65 66 71 82 90 89 89 88 82 77 73 71 68 65 62 62 62 60 60 62
96 95 97 99 97 97 99 99 99 99 97 97 98 101 100 99 100 99 98 99 99 98 97 93 90 88 86 88 87 81 76 74 75 80 83 83 85 86 87 89 86 81 82 87 84 73 62 59 67 78 80 80 82 79 76 74 69 63 60 59 60 62 66 68 68 71 75 78 85 90 89 89 88 78 69 65 63 60 57 56 54 53 53 55 58
97 97 99 99 98 99 99 97 98 99 100 100 99 99 100 100 100 98 94 93 94 95 95 91 88 85 81 84 90 86 77 75 79 82 80 77 81 83 80 84 91 90 86 81 66 49 47 64 81 84 80 80 79 75 74 71 65 61 59 58 59 61 65 68 69 75 84 88 89 90 91 90 85 74 66 63 62 58 57 56 53 52 53 54 55
94 96 99 99 99 100 99 98 99 99 98 97 96 97 97 97 99 100 95 89 86 86 87 86 85 84 81 82 87 87 80 78 83 89 89 86 87 85 77 77 88 90 79 66 54 44 50 67 80 81 79 79 76 72 71 70 65 61 60 61 60 61 65 67 68 77 89 92 91 91 91 86 79 72 68 66 64 62 60 59 58 56 56 57 56
91 96 100 100 99 100 99 98 98 97 97 97 97 98 98 97 98 100 99 95 89 84 82 83 86 89 88 84 84 85 82 79 81 87 92 93 92 89 83 83 89 84 70 61 60 61 64 69 73 79 79 75 73 72 69 67 64 61 61 64 64 63 65 67 67 75 86 91 92 89 84 78 74 72 71 68 67 67 65 64 63 61 60 60 60
90 95 99 99 100 100 99 99 99 99 99 100 100 98 96 98 99 98 100 99 97 95 92 90 94 95 92 87 82 81 83 84 86 87 90 92 90 87 86 86 88 82 71 66 67 68 69 69 71 76 76 73 74 72 66 62 62 62 63 64 65 67 67 68 68 70 76 82 84 81 77 75 73 71 71 70 69 68 68 67 67 66 65 64 63
88 91 96 99 100 100 99 99 99 99 100 99 99 97 94 98 100 98 99 99 99 100 100 98 99 98 95 93 88 84 84 88 90 89 89 87 83 83 85 85 85 82 75 70 68 65 65 68 71 71 71 73 72 65 60 61 62 63 64 63 64 66 67 70 73 74 75 77 77 76 74 72 70 68 68 69 69 69 68 68 67 67 67 66 66
87 88 91 92 94 98 100 99 98 98 100 100 100 99 98 100 101 98 96 97 99 100 99 99 100 99 99 99 96 91 88 88 90 91 92 90 85 86 88 84 84 83 76 72 69 62 60 66 70 70 69 70 67 60 59 62 64 64 64 62 63 65 66 70 75 76 75 75 74 74 73 70 68 67 66 66 67 66 65 65 64 64 65 64 63
86 86 86 85 87 92 97 99 99 99 100 100 99 100 100 99 100 98 92 92 98 100 100 100 99 98 99 99 99 97 94 91 91 92 95 95 91 90 88 82 82 82 76 72 70 64 60 62 66 68 68 65 61 59 62 65 66 66 64 64 68 72 71 72 75 77 76 75 75 74 72 69 64 61 63 66 67 65 62 62 63 65 65 65 64
83 82 83 83 85 90 94 96 98 99 100 100 99 100 100 99 99 98 93 90 93 97 99 99 97 97 99 99 98 97 96 96 95 93 94 93 89 88 87 82 81 82 77 72 71 69 63 60 62 66 65 62 61 63 67 68 67 67 66 65 69 74 76 77 76 74 68 62 61 60 56 52 46 42 47 54 57 56 54 55 62 68 70 69 69
83 81 82 83 85 88 92 93 96 98 99 99 99 99 99 99 99 99 99 95 91 92 97 99 98 98 100 100 98 95 95 99 98 90 85 83 82 84 85 83 81 79 77 74 72 71 66 61 63 65 63 61 64 68 71 72 70 68 67 67 69 74 78 74 65 59 54 49 48 49 47 45 41 38 41 45 46 47 48 55 64 71 73 74 74
83 82 81 82 82 85 89 92 95 99 99 99 100 100 100 100 99 98 99 98 93 93 97 99 99 100 100 99 99 98 96 97 97 92 82 80 84 85 83 82 82 78 77 76 72 71 69 67 69 69 66 66 69 73 75 76 75 73 71 70 71 74 74 69 58 51 50 48 48 52 54 52 50 48 49 49 49 49 52 60 69 72 74 76 75
83 82 81 81 81 81 83 86 89 91 95 98 100 100 99 99 99 98 97 96 96 98 99 98 98 99 100 99 100 100 99 97 98 98 89 83 86 86 82 80 80 77 76 76 73 72 74 75 75 76 74 73 73 75 75 74 74 75 74 72 73 72 67 62 57 52 49 48 49 51 53 52 52 53 53 53 54 53 53 59 68 73 75 79 81
82 81 80 79 79 78 78 79 79 79 82 88 95 100 99 98 98 97 96 96 97 99 100 99 99 99 99 100 100 99 100 100 99 101 98 90 85 84 83 82 80 79 78 78 79 77 76 77 77 76 74 72 69 70 72 74 75 76 76 74 73 69 59 52 51 49 49 50 48 46 47 49 53 56 57 57 59 60 59 62 67 69 72 79 85
80 81 79 78 78 78 75 72 72 71 71 72 78 86 90 91 92 92 93 97 100 100 99 99 100 100 99 100 100 99 100 100 99 98 98 94 88 87 87 84 81 81 80 78 78 77 75 74 72 69 66 66 66 65 67 71 74 75 75 72 68 63 56 50 47 46 46 49 48 48 53 58 61 64 66 70 74 76 76 76 76 73 74 80 84
77 77 78 78 79 80 76 70 67 66 64 61 61 63 66 69 72 73 76 83 92 99 101 100 99 100 100 99 100 100 100 99 99 96 94 92 89 84 82 79 78 80 81 77 74 72 71 70 70 69 66 66 69 67 63 63 66 67 67 66 65 63 61 58 55 53 55 60 63 66 69 71 72 74 78 82 86 87 86 85 83 82 80 79 78
74 73 72 72 72 72 70 66 64 63 61 58 57 56 55 56 57 56 55 57 67 82 95 101 100 99 100 100 99 99 99 99 99 98 95 93 91 83 74 71 72 74 76 74 71 70 71 71 70 68 64 63 64 62 60 64 71 74 73 75 79 80 79 76 73 72 74 77 79 81 80 80 82 83 84 87 88 88 86 83 80 78 75 71 68
73 71 68 66 63 62 59 57 56 55 53 53 52 52 53 54 54 53 51 51 54 62 77 91 99 99 98 99 100 100 100 99 99 99 97 96 97 92 82 76 77 77 77 78 78 78 79 77 71 66 67 70 68 64 66 75 84 87 87 88 92 92 89 85 82 80 82 84 85 86 85 86 87 85 84 84 82 80 77 73 70 67 63 60 56
70 68 67 65 65 65 64 63 60 54 48 46 47 47 48 50 49 45 43 45 48 53 60 71 82 89 91 93 94 96 98 99 99 100 99 98 99 97 92 86 84 83 81 81 82 81 77 74 73 72 77 84 83 80 82 86 89 90 91 91 91 90 88 86 83 82 83 85 85 84 83 83 82 78 74 71 67 64 60 56 53 50 47 44 40
63 60 59 60 62 64 66 67 65 59 52 49 49 48 49 51 53 49 41 34 35 42 50 55 60 68 76 82 86 88 91 96 99 99 100 100 100 100 99 96 93 92 90 88 89 89 84 80 80 80 81 82 81 80 82 81 78 76 76 78 81 82 81 80 80 79 78 76 74 72 69 67 63 59 55 51 48 46 44 41 38 36 33 32 30
64 60 57 55 58 62 66 67 66 62 57 54 53 53 52 53 57 58 51 39 30 30 36 40 43 48 55 64 73 78 81 87 92 94 94 95 95 95 96 97 96 96 95 93 93 94 92 89 87 85 83 81 76 73 73 73 68 62 57 54 55 57 57 57 56 56 56 54 49 45 42 40 38 36 34 34 34 34 34 32 32 32 32 33 33
74 71 67 63 61 62 67 71 73 72 68 64 62 62 61 60 60 62 59 50 40 33 30 29 29 32 37 45 56 66 72 75 79 84 87 90 91 91 92 94 94 91 88 86 85 84 82 80 77 74 70 65 61 58 58 55 50 43 36 31 30 32 33 32 30 29 29 28 25 22 21 20 21 24 26 29 31 33 34 36 38 41 44 46 45
78 74 73 72 68 65 66 68 72 74 72 68 66 64 63 62 61 62 62 58 52 48 43 39 34 29 28 32 41 52 62 66 70 75 78 80 83 85 86 88 88 84 81 79 79 77 75 74 73 70 66 59 53 50 47 40 31 24 20 17 17 18 18 18 17 16 16 15 14 14 16 20 26 32 36 39 41 45 48 51 53 55 56 56 55
74 72 75 77 75 73 71 71 71 70 67 66 66 63 62 61 60 62 62 61 59 58 55 52 48 42 35 31 30 34 41 49 57 65 69 72 74 75 75 76 77 78 77 75 73 73 73 71 66 61 56 48 40 35 33 27 22 19 17 15 15 15 14 15 15 14 14 15 16 19 26 35 43 47 50 52 56 61 63 63 62 63 64 65 67
71 71 76 79 77 75 75 74 74 72 70 71 71 68 65 65 64 63 62 61 62 61 58 57 56 54 51 45 38 34 32 33 39 45 49 51 51 50 50 52 53 55 54 50 47 46 48 47 40 34 31 27 23 23 22 19 18 17 16 16 17 18 20 21 22 23 26 30 33 36 41 48 54 57 58 59 61 64 65 66 68 70 72 73 73
67 70 74 75 74 73 73 72 72 71 70 69 69 69 68 65 64 63 61 61 62 60 59 59 58 57 58 56 53 50 45 40 39 40 39 38 35 32 32 33 34 36 36 32 29 28 27 26 23 21 21 20 19 20 20 19 20 20 19 21 24 27 31 33 37 44 50 52 52 52 53 55 57 60 62 63 66 68 70 72 73 71 68 68 68
Wind_Speed
21 19 20 19 18 16 13 11 11 13 12 12 14 15 15 14 15 16 16 18 22 23 22 23 23 22 22 23 23 23 23 24 23 21 21 21 22 21 21 22 22 24 24 22 19 19 18 17 17 17 16 14 13 15 17 17 16 15 15 15 15 16 15 13 12 11 11 11 10 10 10 9 9 8 8 9 8 7 6 6 5 6 7 5 5
22 21 22 21 19 16 14 13 14 14 13 14 16 16 15 14 14 14 14 18 20 21 21 22 22 21 21 21 23 24 24 24 23 21 21 22 22 22 21 22 22 23 23 21 20 19 19 18 18 18 16 15 14 14 16 17 16 16 16 15 15 14 13 12 12 12 12 13 12 11 9 9 9 8 9 9 9 7 6 6 5 6 8 6 5
24 24 24 22 20 17 15 15 16 14 13 14 15 15 14 14 15 14 14 17 19 21 21 21 21 21 21 20 20 21 21 22 21 21 21 21 22 22 22 22 22 22 22 20 20 20 19 18 18 17 16 15 15 15 16 17 16 16 15 14 13 13 12 11 12 12 13 13 12 11 9 9 9 9 10 9 8 7 6 7 6 6 7 6 6
27 26 25 23 20 18 16 17 16 14 14 14 15 14 13 13 14 14 14 16 19 21 22 21 21 22 22 20 19 20 20 20 21 22 23 22 22 22 21 20 19 21 20 19 21 21 18 16 16 16 16 15 15 16 16 16 15 14 14 13 13 13 13 13 14 13 13 11 10 10 11 11 9 8 11 10 9 8 8 7 6 6 6 6 7
27 25 24 23 21 19 17 17 16 14 14 14 14 14 14 14 14 14 14 16 19 21 22 22 22 23 23 21 20 20 21 21 22 23 23 23 22 21 20 18 17 19 19 19 21 20 16 16 17 17 16 15 15 15 15 14 14 14 13 13 13 13 13 14 15 15 13 11 9 8 9 9 10 11 11 10 9 8 8 7 7 7 6 6 7
21 22 23 23 22 20 18 17 16 15 14 13 14 14 15 15 15 14 15 17 19 21 22 22 22 23 23 22 22 22 22 22 22 23 22 22 22 20 18 17 17 17 17 19 20 19 17 19 19 17 16 15 15 15 14 14 14 14 14 13 12 12 12 14 16 16 15 12 10 9 6 5 7 12 13 10 9 9 8 7 7 7 7 7 7
17 20 22 23 23 20 18 18 16 15 14 14 14 14 15 16 16 17 16 17 19 21 22 23 23 23 23 23 23 22 22 22 22 22 23 23 21 19 17 17 17 17 16 18 19 18 18 18 18 17 16 15 15 15 14 14 14 14 13 13 13 12 12 13 14 16 16 14 13 12 10 7 5 7 11 10 10 11 9 7 7 8 8 8 8
16 17 20 22 22 20 18 17 15 15 14 14 15 14 14 15 16 18 18 17 17 18 21 22 22 23 24 24 22 22 23 23 23 23 23 22 20 18 18 16 15 16 17 18 18 18 18 17 17 16 16 15 15 15 14 15 15 14 14 14 14 14 13 12 12 14 15 14 14 14 12 11 8 6 8 9 9 11 12 10 9 9 9 9 9
14 15 18 20 21 20 18 16 15 15 15 16 15 14 15 15 16 18 18 17 16 15 17 18 18 22 26 24 22 22 23 23 23 23 22 20 18 17 17 16 15 15 17 19 18 17 17 17 17 16 16 15 15 14 15 15 15 14 14 15 14 14 13 12 11 12 13 13 14 14 13 13 11 8 8 11 10 10 13 13 12 11 11 11 10
14 14 16 18 18 18 17 16 15 16 17 17 16 15 15 15 16 17 18 18 17 15 12 12 17 22 25 24 23 23 24 23 22 22 21 18 16 15 15 14 15 16 16 16 16 16 17 17 17 16 16 15 15 15 16 16 15 15 14 14 14 13 13 13 11 10 11 12 13 14 14 14 12 10 10 13 12 11 12 14 15 14 13 13 11
11 12 14 16 16 16 16 15 15 17 18 19 19 18 16 16 16 18 18 18 18 15 10 10 16 20 22 23 23 23 23 22 21 21 19 18 16 14 12 12 15 17 15 16 16 17 17 17 17 16 15 15 15 15 15 16 15 15 15 14 14 14 13 11 11 10 9 11 13 14 14 13 12 11 11 12 13 12 11 13 16 16 14 13 11
7 9 11 13 14 14 14 14 15 16 17 19 21 21 20 18 16 16 17 16 16 12 9 11 14 14 18 21 22 22 21 20 21 20 19 17 16 13 11 11 14 16 16 18 19 18 17 17 18 17 15 15 15 15 15 15 14 14 15 14 14 14 12 11 12 11 10 11 13 14 13 12 11 10 11 11 11 11 9 11 15 17 14 12 11
5 4 6 8 9 10 10 11 11 12 14 16 20 23 23 21 17 15 16 14 12 10 11 14 13 11 15 19 21 21 21 20 20 20 18 17 15 13 11 12 15 17 18 19 19 19 18 18 17 17 16 15 15 14 14 14 15 15 14 13 13 13 13 12 12 11 11 10 11 12 13 12 11 10 10 11 10 10 10 10 14 16 13 13 12
7 5 3 3 3 4 5 6 6 7 9 11 15 20 23 22 18 16 17 16 13 12 14 16 13 11 16 19 21 22 21 21 20 18 18 16 15 12 11 13 15 17 18 18 18 18 18 17 16 15 15 15 15 14 14 14 14 14 13 13 13 14 13 13 13 12 12 10 10 11 12 12 11 10 10 10 11 11 10 10 13 15 13 13 12
7 5 3 2 2 3 5 6 7 8 9 9 11 14 18 20 19 19 19 19 18 16 17 17 14 12 16 20 22 22 22 22 20 18 17 16 14 13 12 13 16 16 16 16 16 17 17 16 16 16 16 16 16 15 15 14 14 13 13 13 14 14 14 14 14 14 13 12 11 11 11 12 12 11 11 11 11 11 10 10 13 15 14 12 11
5 2 0 2 3 4 6 7 8 10 11 11 11 12 13 15 17 20 22 23 23 21 21 21 17 16 19 20 21 22 22 22 20 17 17 15 14 13 12 14 17 16 15 15 16 16 16 16 17 17 17 16 16 16 14 14 14 14 14 14 14 14 15 15 15 14 14 13 12 12 12 12 12 12 11 11 11 11 10 10 12 15 13 11 10
8 7 6 6 6 6 6 6 7 9 10 8 7 8 9 10 13 17 21 24 26 25 22 21 20 20 21 21 21 22 22 21 19 17 17 17 14 13 13 15 18 17 16 16 16 15 16 17 17 17 17 17 16 16 15 15 14 14 13 12 13 13 13 14 14 14 13 13 13 12 12 12 12 11 11 11 11 11 11 10 11 14 14 10 7
11 11 11 10 10 9 8 8 8 8 7 5 3 3 5 7 10 14 20 24 25 24 22 21 20 20 21 21 21 20 20 20 19 17 18 19 16 16 16 17 18 17 17 17 17 16 17 18 17 17 17 17 17 17 16 15 14 13 12 12 12 12 12 13 12 12 12 12 12 12 12 12 11 11 11 11 11 11 11 10 10 12 14 11 6
12 12 11 11 10 10 10 9 10 9 7 5 4 4 5 7 9 12 17 22 22 20 19 22 22 20 21 21 19 19 19 20 19 17 18 19 18 19 19 19 18 17 17 18 18 18 18 18 18 18 18 17 18 18 16 15 13 12 11 12 13 13 12 12 12 11 11 11 11 11 12 12 12 12 12 12 11 10 10 10 9 11 12 11 9
10 10 9 9 9 10 9 9 10 8 7 6 6 7 8 9 10 10 14 17 18 17 18 21 22 21 21 20 19 19 19 19 18 16 17 19 19 20 21 20 19 19 19 19 19 19 18 18 19 19 18 17 17 17 16 15 13 11 10 11 13 13 13 12 12 11 11 11 11 11 11 12 12 12 12 12 10 9 9 9 8 10 11 10 9
9 8 8 8 9 9 9 8 8 8 7 6 6 8 11 11 11 13 15 16 16 17 18 20 21 21 22 21 20 19 19 19 18 16 17 19 20 20 21 21 20 20 20 20 19 18 18 18 18 17 16 16 15 15 14 14 12 11 10 12 13 13 13 12 12 11 11 11 11 10 10 10 11 11 11 11 10 9 9 8 8 10 10 9 8
8 7 6 6 8 10 9 9 8 8 7 8 9 11 12 12 12 14 15 15 16 16 15 16 17 19 21 21 20 19 18 18 17 17 18 20 20 20 21 22 21 19 18 18 18 18 18 18 17 16 16 16 16 15 14 14 13 11 11 12 13 13 12 11 11 10 10 10 10 10 9 9 10 10 11 10 10 9 9 10 9 9 9 9 8
8 7 6 5 5 7 7 7 8 8 8 9 10 11 11 11 11 11 11 13 15 15 13 12 13 16 19 19 18 17 17 16 16 17 19 20 20 20 21 22 21 19 17 17 17 17 17 17 17 18 18 17 17 16 15 14 13 12 12 13 13 13 12 11 9 9 8 9 10 9 9 9 9 10 11 10 10 9 9 9 8 9 9 9 8
8 7 7 6 4 4 6 8 8 7 7 9 10 9 9 9 10 10 9 10 12 13 14 13 12 13 14 15 13 13 14 15 15 17 19 20 20 20 21 21 20 18 17 17 17 17 17 17 18 18 19 19 18 16 14 13 13 14 14 14 14 13 12 10 8 7 7 7 8 8 9 9 10 11 11 10 10 9 7 7 7 8 9 8 8
6 6 7 7 7 7 9 11 11 8 8 10 11 11 11 10 10 10 10 10 10 12 13 13 14 13 11 11 10 10 12 15 15 16 18 20 21 20 21 20 20 19 17 17 18 19 17 17 17 18 19 18 17 16 14 14 14 15 15 14 13 12 11 10 7 5 5 7 8 8 9 10 11 11 10 9 9 8 5 6 8 9 9 9 10
6 6 6 7 8 9 10 11 12 11 10 10 10 11 12 11 11 11 11 11 12 12 13 13 14 13 11 11 10 11 13 16 16 16 17 19 21 21 22 21 20 17 16 17 19 19 17 16 18 19 18 18 18 16 14 13 14 15 14 13 12 11 10 9 7 5 6 8 9 9 10 11 10 9 8 7 8 7 7 8 9 10 10 11 12
6 5 6 7 7 8 9 9 10 12 12 11 11 12 14 13 13 12 13 12 12 13 13 13 13 12 10 12 13 13 15 16 16 16 17 19 20 20 21 21 19 17 16 18 19 18 17 18 21 21 19 18 18 16 15 14 14 13 13 12 12 12 11 9 7 7 8 9 9 10 11 11 9 8 8 8 7 7 8 8 8 8 9 10 11
8 7 7 7 7 7 8 8 9 10 11 11 11 12 14 15 16 15 15 14 13 13 13 14 14 13 11 12 14 15 16 15 16 17 19 20 20 18 17 18 19 18 17 18 18 17 20 23 25 23 21 19 18 18 17 16 14 13 12 13 13 12 12 10 9 9 9 9 10 11 11 11 9 8 8 7 7 6 6 6 6 7 6 6 7
10 10 8 8 8 7 8 8 9 10 11 11 11 12 13 15 17 17 16 16 15 13 14 14 14 14 13 12 13 15 17 17 16 18 19 19 20 18 15 17 19 18 17 17 17 18 22 25 25 24 22 21 19 19 19 17 16 15 13 12 13 14 13 11 10 10 10 9 10 10 10 10 8 7 6 6 6 5 5 5 5 6 6 6 5
11 11 9 8 8 7 7 8 9 11 12 12 13 14 15 17 17 17 17 18 18 16 13 11 11 12 12 12 12 13 17 19 18 18 19 19 20 20 18 19 21 19 18 20 19 18 20 21 24 25 23 21 20 19 18 18 17 17 14 12 13 15 14 11 10 11 11 10 10 10 10 8 6 5 4 4 4 4 4 4 4 5 6 7 7
11 11 9 8 8 7 7 8 9 11 12 14 14 15 16 18 17 17 18 19 19 19 15 10 8 8 8 9 10 10 15 20 19 19 20 19 19 20 20 22 23 21 21 21 19 18 19 18 21 23 22 21 20 16 16 19 19 17 14 12 14 16 15 12 11 11 11 10 10 10 9 7 5 4 3 3 3 4 5 6 6 6 7 7 8
10 10 9 8 8 7 7 8 9 11 13 15 16 16 17 18 18 18 18 17 16 15 15 12 9 7 6 6 8 8 12 18 20 19 20 19 18 20 21 24 25 23 21 22 20 19 19 18 19 20 20 20 18 15 17 20 19 16 14 13 14 15 14 13 13 12 11 11 10 9 8 6 5 4 4 4 4 4 6 7 7 7 8 8 8
10 9 9 8 7 7 6 6 8 10 13 15 17 17 18 19 19 18 16 15 14 12 11 10 9 6 6 8 7 7 11 17 20 20 21 21 21 22 21 23 25 24 22 22 21 19 19 19 19 18 18 19 17 16 17 18 17 15 14 14 15 15 15 15 15 14 13 13 11 9 7 6 5 5 6 7 7 7 7 8 9 9 10 11 11
9 8 8 7 6 6 5 5 6 8 11 13 14 15 16 17 18 17 16 15 14 12 11 9 9 7 4 11 12 10 12 17 20 22 23 24 24 23 23 24 26 25 24 22 21 20 20 20 20 19 18 18 17 16 16 16 16 16 15 15 16 16 16 17 16 16 14 12 11 9 6 5 4 5 5 6 7 7 8 9 10 11 11 12 12
9 8 8 6 5 5 5 5 6 7 8 9 10 11 13 14 16 16 16 16 14 12 12 11 10 8 3 5 8 10 12 16 19 22 23 24 24 23 24 27 27 25 25 23 20 19 19 20 21 20 19 18 18 17 16 16 16 16 16 16 16 15 16 16 15 12 9 7 7 5 2 2 3 3 4 5 6 7 9 10 10 11 11 12 12
10 9 7 6 6 6 7 7 8 7 7 8 9 9 9 10 12 14 15 16 15 13 13 13 11 11 8 4 1 6 10 15 18 20 20 21 23 23 24 26 29 27 25 23 20 19 20 21 22 21 20 19 19 19 19 18 18 17 16 16 17 17 16 13 10 8 6 5 4 3 1 4 5 5 6 7 9 10 11 11 11 11 11 12 12
10 10 8 8 7 7 7 8 8 8 8 9 9 7 6 7 8 10 13 15 16 17 17 15 13 13 11 7 3 5 8 11 14 19 20 19 21 24 23 22 26 28 26 24 22 20 22 22 22 22 21 21 21 21 21 20 19 18 18 17 18 18 15 10 7 6 4 3 3 3 4 6 9 10 11 12 12 13 13 13 12 12 12 13 13
9 9 8 8 8 8 8 7 8 9 10 9 8 6 6 7 8 10 11 14 16 17 17 16 15 13 11 8 6 6 8 9 11 17 20 17 17 20 19 19 24 27 27 26 25 25 24 23 22 21 20 21 22 21 21 21 19 19 19 19 19 17 13 10 8 6 6 7 7 8 10 13 16 16 15 15 15 14 15 15 14 13 13 14 14
7 7 7 7 8 9 10 9 10 11 11 9 8 8 8 9 11 12 13 15 17 18 17 16 15 13 10 8 8 8 9 12 13 16 20 19 17 18 19 19 21 24 27 27 26 25 24 23 20 17 15 16 15 13 15 17 17 17 17 17 17 15 12 10 9 8 9 9 9 13 16 18 18 17 16 16 16 16 16 16 16 15 15 15 14
8 7 6 6 6 8 10 12 13 12 11 10 9 9 10 12 13 14 16 19 19 17 16 15 14 13 12 9 7 8 10 12 14 17 22 24 22 22 21 19 18 19 21 18 14 13 14 15 14 10 8 9 8 6 7 9 10 11 12 12 12 12 11 11 11 12 12 12 13 15 16 16 15 15 14 15 16 16 16 15 14 15 15 14 13
9 8 7 5 5 7 10 13 14 12 11 11 10 11 13 14 15 17 20 20 19 16 14 13 12 12 12 11 8 6 7 9 11 13 17 21 22 20 17 14 11 10 11 8 5 5 5 6 6 5 5 7 7 6 7 7 7 9 11 10 10 11 11 12 13 13 13 13 13 13 13 13 13 14 14 14 13 13 12 12 11 10 10 10 10
11 10 9 8 8 9 10 11 12 12 11 11 11 12 14 15 16 18 19 17 16 15 14 12 12 11 11 10 9 7 5 5 6 8 10 13 16 16 15 13 11 9 9 11 12 12 12 12 11 9 7 9 9 8 9 9 9 10 10 10 11 11 11 11 11 11 11 10 11 11 11 12 12 12 11 10 9 9 9 9 9 8 9 9 10
12 12 12 11 12 12 12 11 11 11 11 11 11 12 13 15 17 17 15 13 13 14 13 12 12 12 12 10 9 8 6 4 4 4 5 9 12 14 16 17 16 14 14 14 13 11 10 12 13 11 11 11 11 11 12 11 10 10 10 10 10 10 10 10 10 10 10 10 10 10 10 9 9 8 7 7 7 8 8 8 9 10 12 13 13
11 11 10 9 10 11 11 10 10 11 11 11 12 13 13 15 17 17 14 12 11 11 10 11 12 12 12 12 11 9 7 6 5 4 4 7 11 13 14 16 15 14 13 13 12 11 10 10 11 11 11 10 10 10 10 10 9 9 9 9 10 10 10 9 9 9 8 8 8 8 8 7 7 7 8 9 9 10 10 11 11 12 12 12 12
13 12 11 9 9 9 9 8 9 10 10 10 11 12 14 16 18 18 16 14 12 9 8 9 10 11 12 12 11 10 9 9 8 8 8 9 10 11 12 13 14 13 13 12 11 11 10 11 11 12 11 10 10 9 8 8 7 8 8 8 8 8 8 8 8 7 7 8 8 8 8 8 9 10 10 10 10 10 10 9 9 9 9 9 9
13 12 12 12 12 11 10 10 9 9 9 9 10 11 13 15 15 16 17 16 14 12 10 9 10 11 11 10 10 10 9 9 9 9 10 10 9 9 9 10 10 10 10 10 10 9 9 9 9 9 8 8 7 6 7 7 7 7 6 6 6 7 7 7 7 8 8 8 8 9 9 9 10 10 9 9 8 8 7 7 7 7 8 8 8
14 13 11 10 10 11 11 11 11 10 10 10 10 12 13 13 13 14 14 14 14 14 14 13 12 11 10 10 10 10 9 9 9 9 9 10 9 9 9 9 9 8 8 9 9 9 8 7 7 7 6 5 3 2 1 2 4 4 4 4 5 5 6 6 6 6 7 7 7 8 8 8 8 8 7 7 7 7 7 7 7 7 7 8 9
17 16 14 12 11 11 10 10 10 10 9 9 10 10 11 11 12 13 13 12 13 14 14 15 15 14 12 11 9 9 8 8 8 7 7 8 8 7 7 8 9 8 7 6 6 5 5 4 4 4 4 3 3 2 2 2 2 2 1 1 1 2 3 3 4 4 4 5 5 6 6 7 7 7 7 7 7 6 6 5 5 6 8 9 10
16 15 15 13 13 12 11 11 11 9 8 7 8 8 8 9 11 11 11 11 12 13 14 15 16 16 15 14 11 10 8 7 6 4 4 5 6 6 5 5 5 5 4 2 2 1 1 2 3 3 3 3 2 2 2 2 3 2 1 1 1 1 2 2 3 3 4 4 6 6 7 8 8 7 7 6 5 5 4 4 5 6 8 9 10
14 13 13 12 12 12 12 12 12 10 8 8 7 7 8 9 10 10 10 10 10 10 12 14 15 15 16 15 14 13 12 10 9 7 5 5 6 7 6 4 3 2 1 1 2 2 3 3 3 3 3 2 1 2 2 3 3 2 1 1 2 2 2 2 2 2 3 4 5 6 7 7 6 5 5 5 4 4 4 5 6 7 8 10 11
12 12 11 10 10 10 10 11 11 10 9 8 8 8 7 7 8 9 9 8 9 9 10 12 13 14 15 14 13 13 12 12 12 11 10 8 8 8 8 7 6 5 4 3 3 3 3 2 2 2 2 2 2 3 3 3 3 3 3 3 3 2 2 1 2 2 2 4 5 5 5 5 5 4 4 4 5 5 6 6 8 9 11 11 11
Wind_Direction
197 200 204 200 199 203 208 215 225 228 221 216 218 218 220 221 223 226 223 215 216 220 219 217 216 213 215 220 221 220 219 221 225 227 232 234 234 231 229 228 227 225 216 206 205 203 198 194 192 193 190 190 198 198 195 195 197 201 202 202 207 209 204 200 202 205 201 189 177 171 174 187 196 202 214 224 225 218 209 210 220 219 206 196 202
199 202 201 198 200 205 210 218 226 226 217 218 224 221 217 215 216 220 214 206 208 214 216 214 210 209 215 220 223 225 225 227 230 232 238 240 239 236 234 234 230 223 217 209 205 202 196 193 192 194 195 194 198 198 193 194 199 204 207 205 204 211 213 210 206 201 199 195 185 176 174 191 202 207 216 221 220 216 210 213 228 228 215 211 212
199 201 200 198 200 204 210 220 224 223 223 230 235 231 222 215 214 215 211 206 204 206 211 211 207 210 219 226 231 235 238 241 242 242 243 243 241 239 239 239 231 222 217 210 204 198 193 192 194 197 200 200 201 201 197 197 201 204 209 212 210 209 212 219 216 205 201 198 192 180 174 188 201 213 219 213 211 215 215 219 228 229 222 224 220
202 204 201 197 198 204 211 219 222 219 223 233 238 237 234 230 224 218 214 211 206 205 209 210 210 213 220 229 238 243 247 249 250 250 248 246 243 240 239 238 231 225 219 210 205 199 194 197 198 200 201 203 207 205 201 200 203 206 210 217 223 219 216 220 215 205 204 201 193 182 181 191 195 210 221 211 206 213 217 223 223 219 222 226 225
205 203 197 194 198 207 213 218 219 217 221 228 230 228 230 237 238 233 228 222 215 213 213 212 213 215 219 227 235 241 244 246 249 252 252 252 249 243 240 238 235 229 219 211 206 199 200 203 201 202 203 204 205 203 204 208 208 214 220 224 228 226 224 223 209 198 203 205 204 194 188 199 200 205 218 215 213 220 220 221 217 212 216 221 223
201 198 196 196 200 208 216 219 218 218 225 232 230 221 218 224 230 233 235 234 231 228 223 219 218 220 224 228 232 237 241 245 251 257 259 258 254 245 239 239 238 233 221 212 205 200 206 207 200 202 205 204 205 202 205 214 218 221 225 227 228 224 222 222 208 196 198 200 205 213 216 230 219 212 216 206 205 220 217 212 216 210 205 207 206
200 202 201 200 202 210 219 222 221 224 231 240 240 229 218 215 218 222 224 228 238 243 238 231 227 229 231 232 235 239 244 250 254 260 263 262 256 246 242 243 240 233 222 212 206 204 210 206 196 199 204 205 207 206 206 214 220 223 224 225 226 223 217 218 211 200 201 201 203 214 228 246 251 232 222 203 198 210 209 211 212 201 196 200 200
204 205 204 204 206 213 223 226 227 231 239 251 253 248 236 223 220 223 223 221 229 243 248 245 241 240 241 240 242 245 250 255 258 262 264 261 257 251 250 248 240 231 218 211 209 207 208 202 194 197 201 203 207 208 211 215 217 218 219 220 222 222 217 215 215 211 210 209 206 212 223 233 249 265 240 224 219 205 198 208 206 193 197 200 197
211 211 209 210 212 216 225 229 233 237 241 251 258 260 252 239 230 228 229 230 228 234 246 254 255 254 254 251 249 252 255 258 262 266 265 260 255 251 249 246 235 224 212 208 208 206 204 199 196 198 199 202 207 209 212 213 213 214 213 215 216 216 213 210 216 222 221 216 212 214 219 226 243 258 231 226 235 210 199 208 200 189 198 201 197
218 220 217 218 219 222 229 234 242 244 242 247 258 264 262 255 243 231 230 235 235 232 238 255 258 260 264 261 256 258 260 261 262 265 265 259 253 247 245 238 222 214 206 201 202 201 200 198 197 198 200 202 205 206 208 206 207 210 211 210 210 209 206 204 209 217 222 224 223 220 220 225 236 241 221 217 225 220 215 215 201 194 199 199 199
216 223 225 226 228 233 238 244 252 252 250 254 262 269 270 266 251 238 234 233 233 227 221 245 254 259 268 269 264 262 263 263 262 263 261 255 249 241 235 227 212 206 200 193 196 198 197 198 197 198 201 202 201 203 204 204 206 210 209 203 204 208 206 204 208 207 214 227 229 225 226 232 241 248 243 231 223 219 225 220 203 198 201 198 199
200 220 231 237 242 250 256 263 269 269 268 269 270 272 272 268 259 249 240 228 224 222 221 240 250 258 266 267 264 261 261 262 262 262 257 250 245 231 218 215 206 201 196 191 195 197 196 198 199 199 200 199 199 202 205 207 207 208 206 203 205 210 209 211 215 211 212 222 227 227 228 235 245 257 261 253 238 227 235 229 203 196 198 195 200
142 187 225 243 251 262 270 275 279 279 279 277 276 276 273 268 261 253 244 232 225 229 234 236 238 252 263 262 260 258 259 260 259 259 253 246 238 224 211 208 200 193 193 194 196 197 198 200 201 200 199 196 197 201 204 204 203 201 202 206 212 214 214 218 221 219 220 224 227 229 231 235 241 248 254 252 245 231 234 234 205 194 194 192 198
110 120 145 195 229 257 268 270 274 280 283 279 276 275 271 265 260 253 247 242 241 242 237 227 223 245 262 261 257 254 255 256 255 253 248 240 230 221 211 208 201 193 193 196 197 199 202 202 201 200 196 194 195 197 200 200 199 199 201 206 212 215 217 221 221 221 223 224 224 230 235 238 237 239 240 239 240 233 232 234 207 189 188 196 203
110 116 129 166 238 264 266 266 272 278 280 280 279 277 272 266 261 257 252 248 248 248 240 229 221 237 254 258 255 251 249 248 247 246 240 231 224 217 207 202 200 194 192 195 199 202 203 200 196 193 190 191 193 194 197 199 197 198 202 206 210 214 217 219 219 219 220 219 218 224 231 233 236 239 235 230 235 238 240 240 219 195 186 198 213
87 97 80 294 291 292 289 281 277 275 272 272 274 276 279 275 270 267 262 256 252 250 244 237 229 224 234 244 247 245 243 239 238 236 228 221 219 214 205 197 194 192 193 197 200 199 198 194 189 187 188 190 193 194 195 196 195 196 200 205 209 214 219 220 219 218 218 218 218 222 225 226 233 238 234 230 234 239 240 242 235 221 207 204 214
38 31 22 1 344 338 325 310 291 279 276 280 281 276 278 281 280 278 273 263 255 250 243 237 228 215 218 229 233 235 239 235 229 226 220 216 211 204 196 190 188 191 196 198 198 193 190 190 187 185 187 189 192 194 192 191 193 196 201 205 207 212 216 215 215 217 218 217 219 223 222 222 228 230 229 231 234 236 235 237 241 238 233 230 226
41 35 30 20 8 358 344 329 312 295 294 321 334 288 268 266 269 274 276 271 261 251 239 230 223 212 214 223 224 225 231 230 222 217 215 213 206 195 188 186 187 192 197 195 193 190 187 188 187 185 186 187 189 189 188 189 192 196 202 205 207 208 208 207 208 213 213 212 215 216 217 219 222 221 223 229 233 233 231 231 237 236 238 246 265
47 41 34 27 19 8 355 342 329 315 310 327 328 293 283 281 275 271 274 272 265 254 241 231 223 217 219 223 221 220 225 225 218 213 212 209 203 194 187 187 189 191 194 192 191 190 189 189 188 188 190 189 190 190 192 193 192 197 204 205 204 204 206 207 208 210 209 208 211 211 213 217 213 211 218 225 228 228 224 223 228 231 236 244 260
56 53 45 36 32 22 14 1 341 328 321 318 306 292 294 297 293 287 283 277 266 257 248 236 227 225 225 221 218 220 223 222 217 213 213 207 199 193 189 188 189 190 190 190 191 192 191 191 191 193 195 193 192 193 196 196 194 200 206 203 201 202 205 209 210 212 208 206 208 207 208 210 205 206 215 221 222 220 219 217 218 226 235 239 248
68 64 61 51 49 42 32 19 356 338 327 309 291 292 300 305 307 307 299 288 276 266 253 237 229 230 228 221 221 224 220 219 217 213 213 207 199 195 193 193 191 190 191 190 191 192 192 193 194 196 198 197 197 198 198 200 202 208 207 200 199 201 203 205 207 209 206 202 202 201 200 199 199 202 209 216 218 214 214 216 216 222 232 238 241
69 62 55 38 39 41 34 22 9 357 336 307 293 302 312 317 322 324 312 295 288 283 264 240 229 227 225 223 225 224 219 216 214 210 207 204 201 198 197 196 193 191 195 195 192 193 193 193 197 201 203 203 205 207 207 208 210 210 203 195 195 195 195 197 200 202 199 195 194 195 194 191 194 201 204 213 223 220 212 213 219 225 231 237 236
70 63 52 29 17 23 18 6 8 11 349 320 309 312 319 318 319 327 319 297 288 285 275 253 234 226 225 226 225 223 220 215 211 208 205 203 203 201 198 196 192 192 197 198 197 199 198 199 204 208 210 212 213 214 212 208 204 202 196 190 187 186 186 186 188 190 190 188 187 187 188 188 194 202 206 214 223 220 206 199 211 226 230 234 235
65 57 45 39 27 12 4 357 360 4 342 332 335 331 326 316 308 312 315 302 290 287 287 277 257 242 234 231 230 231 227 220 214 210 205 203 202 199 196 192 189 192 194 192 198 206 206 210 215 215 215 215 212 208 202 195 192 192 188 183 179 177 178 176 173 179 187 185 181 180 182 187 197 206 212 217 213 203 192 192 208 222 227 234 242
52 35 20 19 16 4 360 357 356 348 324 325 338 338 333 331 322 317 314 306 297 300 305 293 277 271 259 244 245 244 229 220 221 219 211 202 197 195 193 189 189 191 187 187 199 211 214 217 215 210 206 200 193 190 185 183 185 184 180 176 174 172 173 170 167 175 184 183 181 181 185 193 201 206 208 205 197 189 193 219 230 231 234 243 251
34 15 5 7 10 4 -0 360 357 353 338 325 327 329 332 336 334 330 326 317 310 314 316 301 289 289 275 255 253 245 228 220 223 227 217 203 196 194 192 190 190 188 184 192 205 212 214 209 198 190 186 182 179 179 179 181 183 182 179 178 176 175 173 169 168 174 177 179 182 183 188 194 194 187 178 173 180 193 210 225 235 240 244 251 255
46 30 19 12 15 11 5 1 356 354 350 341 335 332 333 334 332 328 326 324 322 318 308 291 288 295 279 253 246 242 234 226 224 223 214 205 201 199 196 192 188 185 189 200 209 213 205 192 183 179 179 178 178 180 182 183 183 182 185 185 182 179 176 172 175 178 177 177 181 183 185 186 177 162 160 164 172 188 202 214 225 233 239 247 251
74 64 46 28 25 21 11 4 358 356 352 344 339 336 335 337 337 332 323 319 321 320 310 292 281 281 275 257 248 243 238 232 225 218 211 204 197 195 198 195 187 189 200 207 208 202 191 183 180 179 180 181 182 182 183 183 183 185 188 186 184 183 180 178 179 177 174 173 177 180 180 177 171 164 167 169 168 175 189 203 214 218 222 229 239
74 67 61 51 40 30 20 9 358 357 354 350 350 348 345 344 345 344 336 329 328 326 316 301 287 277 271 266 258 245 235 230 224 216 207 197 188 185 192 195 191 195 203 198 188 180 179 182 183 182 183 185 185 184 185 184 184 186 187 185 188 189 185 181 177 171 169 170 172 174 173 171 169 168 173 180 182 185 193 203 213 217 219 221 228
69 66 66 61 49 35 24 9 355 355 358 -0 5 7 4 1 -0 359 356 350 347 344 333 309 292 282 272 267 265 248 232 226 223 215 201 190 188 189 187 189 192 194 193 185 175 169 173 181 184 184 186 187 184 186 188 187 185 185 183 180 182 184 182 177 169 162 160 163 165 167 167 164 163 166 179 200 211 217 221 226 231 230 231 237 241
68 69 72 68 59 47 32 20 11 11 12 12 12 11 8 7 7 7 5 1 356 356 354 339 308 291 276 268 266 252 231 223 219 211 199 192 194 192 187 188 190 189 188 185 180 177 175 177 182 186 188 186 185 188 187 184 184 184 180 174 171 173 173 171 166 158 155 161 167 170 173 175 181 192 203 217 232 244 248 253 260 257 252 252 253
69 74 80 76 72 63 44 28 16 12 12 14 13 9 6 7 7 5 2 360 0 2 359 354 339 304 272 257 260 252 227 218 215 207 195 188 189 188 187 190 189 185 189 190 187 185 180 175 177 181 182 183 185 188 183 180 182 181 178 176 174 172 172 172 172 167 162 164 168 173 182 190 205 225 235 239 252 265 265 264 268 269 266 263 259
68 73 79 77 74 68 50 28 14 11 11 12 13 11 9 8 5 2 359 357 3 10 7 4 358 320 246 210 220 234 212 204 207 206 195 187 188 186 187 193 191 186 191 194 189 187 183 179 178 177 178 182 184 182 181 180 180 180 180 181 176 172 171 171 174 176 174 173 171 170 181 200 224 245 252 257 268 280 281 277 274 273 271 268 265
71 70 74 72 68 64 48 18 11 16 12 11 12 9 7 8 6 5 10 10 10 19 24 21 13 351 242 193 190 200 201 198 201 203 197 193 192 186 184 192 194 189 193 197 193 190 187 186 185 182 180 182 182 179 179 179 180 181 184 183 176 171 172 172 175 177 175 176 176 173 178 200 232 252 254 256 263 271 277 279 277 275 273 271 268
77 71 67 62 55 48 33 12 13 15 8 9 13 7 3 7 7 7 14 16 16 27 37 37 32 25 10 199 191 192 199 200 199 198 196 194 191 188 189 192 191 191 197 197 195 193 190 190 189 186 183 183 181 179 176 178 184 187 189 189 186 182 182 182 182 178 166 159 166 167 175 253 273 275 270 267 267 271 276 275 272 270 269 268 267
85 80 73 66 55 39 27 19 17 17 14 15 14 6 2 8 10 9 15 18 21 34 45 47 48 48 38 15 234 193 196 198 196 192 190 189 187 192 201 196 187 189 195 195 193 191 188 189 189 186 186 185 181 178 175 176 186 194 197 198 195 192 190 184 173 161 143 134 147 164 246 278 281 282 286 287 282 281 283 277 267 263 263 262 261
90 87 83 79 73 59 45 32 27 30 30 24 15 4 5 17 20 21 25 28 32 40 45 47 50 55 55 54 86 167 184 193 194 188 189 195 194 195 204 200 186 185 187 184 183 181 177 179 180 180 183 183 179 177 176 177 182 190 197 202 200 198 198 191 171 163 176 203 241 263 270 285 295 294 292 294 289 284 285 281 270 263 262 261 257
94 93 93 92 89 80 69 53 44 44 39 31 24 20 29 40 42 41 40 40 41 43 45 46 49 55 62 71 89 127 157 172 184 182 183 196 199 191 194 196 186 179 176 172 171 171 169 169 168 168 171 174 174 173 174 176 181 186 194 202 204 207 212 210 204 217 234 241 258 278 287 294 296 289 282 282 279 275 277 277 273 270 268 265 260
101 95 92 91 89 88 84 75 62 53 45 39 38 42 49 53 52 51 51 49 44 39 39 43 47 52 58 73 92 110 131 146 156 155 152 160 173 171 172 178 173 164 161 160 158 159 160 159 160 161 162 167 173 175 177 181 187 194 203 207 207 213 222 221 222 235 242 246 264 280 282 281 280 278 273 270 266 261 261 264 267 270 272 269 267
115 106 94 87 91 95 90 78 66 59 54 50 49 50 54 55 52 49 49 47 40 32 30 35 43 52 57 66 92 114 127 136 141 135 132 138 149 153 155 161 159 154 155 149 137 139 148 151 160 173 181 184 192 204 208 209 210 218 227 221 208 212 226 229 233 241 246 253 262 267 266 265 266 269 266 261 258 256 256 258 261 265 267 268 271
110 106 100 96 98 97 89 78 69 65 63 60 57 57 57 56 53 50 46 40 35 31 31 33 40 51 59 63 71 94 126 140 145 145 142 142 146 151 158 163 159 156 161 161 166 198 206 197 202 220 214 196 192 200 221 233 233 237 246 235 214 217 229 232 236 240 241 246 249 249 252 256 259 260 258 255 256 258 259 261 262 262 262 265 272
107 102 99 96 88 81 78 74 70 67 64 60 60 61 61 59 57 54 48 40 35 33 32 35 43 49 58 67 69 72 93 128 150 162 168 165 161 165 178 188 191 191 198 211 222 229 233 234 236 235 215 198 196 203 215 223 218 218 226 221 213 221 228 228 233 238 239 244 246 246 250 253 253 253 253 254 256 256 256 260 262 265 271 277 283
110 107 104 101 95 88 82 76 70 67 62 58 57 59 59 58 54 50 46 40 37 35 32 36 46 50 53 62 69 72 78 99 133 155 183 190 182 177 183 192 201 207 209 211 212 211 210 212 212 209 203 198 198 202 210 215 211 207 209 209 211 219 225 228 236 241 242 245 245 244 246 245 244 246 249 253 258 261 266 270 273 277 283 286 290
100 101 102 100 96 93 90 84 76 67 60 56 56 55 54 51 46 42 39 36 34 34 36 40 47 52 54 56 60 66 68 77 100 118 141 164 171 172 172 177 184 189 191 190 184 180 185 188 187 190 194 194 193 198 203 204 203 205 208 210 213 220 226 232 238 239 238 239 241 243 246 249 255 264 269 273 275 276 278 281 283 286 288 291 296
92 92 92 90 89 87 86 85 80 73 68 65 64 63 61 56 48 42 40 41 38 35 38 45 48 52 55 54 56 63 63 63 72 85 97 115 136 151 156 158 162 167 173 175 172 172 180 183 183 188 193 193 194 200 202 199 199 205 209 212 215 218 222 226 227 227 231 236 243 251 258 264 270 274 276 278 278 278 280 282 285 289 293 297 305
93 93 94 97 99 98 94 88 81 73 66 64 63 63 63 61 54 45 40 42 43 44 47 51 51 53 55 54 55 60 63 64 68 75 84 92 102 114 120 124 130 134 137 139 139 141 150 157 160 166 172 177 182 191 198 201 206 210 212 215 219 221 225 227 226 230 236 241 250 258 263 267 269 269 271 273 273 274 279 284 289 295 300 306 314
83 85 91 97 100 100 95 87 79 72 64 62 63 62 61 60 56 47 38 33 36 42 48 52 55 57 59 60 61 61 62 67 69 73 83 91 95 101 106 107 106 104 105 110 115 118 122 124 125 126 127 127 124 121 162 213 224 225 218 213 215 221 230 235 236 240 245 247 252 256 258 259 259 256 254 256 261 268 275 283 293 303 312 321 328
74 76 82 85 85 87 87 81 75 68 63 62 64 62 57 53 53 51 42 34 34 38 44 48 50 53 54 57 62 65 66 69 71 71 80 90 93 98 105 108 108 105 102 102 104 104 103 99 96 91 81 72 58 22 354 318 285 276 257 225 221 226 237 240 241 247 250 249 248 247 244 241 237 237 240 246 256 266 273 285 303 316 323 328 332
72 78 84 85 81 79 77 75 70 63 57 56 56 52 46 44 48 48 43 39 37 38 42 46 46 48 50 52 57 64 66 68 69 68 77 91 95 93 88 94 104 101 87 68 47 21 0 4 13 13 10 13 2 335 304 274 275 288 322 328 305 271 258 255 244 241 242 240 236 231 229 228 228 232 239 247 256 263 271 288 305 313 318 323 326
77 87 95 92 85 79 74 70 65 59 56 58 61 64 61 57 54 50 44 42 40 38 41 44 43 43 45 46 50 57 62 65 67 69 74 90 99 96 86 82 92 95 62 338 326 326 322 330 343 339 327 307 271 254 244 252 266 278 279 274 262 248 248 243 224 219 227 233 232 227 225 226 229 234 241 249 253 259 271 286 296 304 309 312 313
87 97 102 97 89 82 74 67 61 52 47 48 54 63 68 65 60 53 49 50 49 45 47 47 42 39 38 37 40 48 54 60 63 64 63 67 75 82 85 83 80 77 75 65 45 30 17 2 340 311 289 271 251 241 240 248 256 252 242 238 232 220 207 195 193 204 222 231 232 229 226 225 226 233 246 253 256 262 273 281 288 293 296 297 301